• In Hungary
  • List of Countries
  • For 7 days
  • Water Temperature
  • Satellite Maps
  • Weather Map
  • News
  • Weather Widgets
  • user-avatar
    Login

    Hourly Weather Nettetal

    Today, 24 February, Saturday

    Time Temperature Precipitation Wind Pressure Humidity
    00:00 -5°C° 0 mm 5 mps 762 mmHg 37%
    01:00 -5°C° 0 mm 5 mps 762 mmHg 36%
    02:00 -5°C° 0 mm 5 mps 762 mmHg 34%
    03:00 -5°C° 0 mm 5 mps 762 mmHg 33%
    04:00 -5°C° 0 mm 5 mps 762 mmHg 33%
    05:00 -5°C° 0 mm 5 mps 762 mmHg 32%
    06:00 -5°C° 0 mm 5 mps 763 mmHg 32%
    07:00 -4°C° 0 mm 5 mps 763 mmHg 32%
    08:00 -3°C° 0 mm 6 mps 763 mmHg 31%
    09:00 -2°C° 0 mm 7 mps 763 mmHg 31%
    10:00 -1°C° 0 mm 7 mps 763 mmHg 32%
    11:00 0°C° 0 mm 7 mps 763 mmHg 34%
    12:00 +2°C° 0 mm 7 mps 763 mmHg 36%
    13:00 +2°C° 0 mm 7 mps 763 mmHg 39%
    14:00 +2°C° 0 mm 7 mps 763 mmHg 41%
    15:00 +2°C° 0 mm 7 mps 763 mmHg 44%
    16:00 -1°C° 0 mm 6 mps 763 mmHg 44%
    17:00 -2°C° 0 mm 6 mps 764 mmHg 44%
    18:00 -3°C° 0 mm 6 mps 764 mmHg 44%
    19:00 -3°C° 0 mm 6 mps 764 mmHg 44%
    20:00 -4°C° 0 mm 6 mps 765 mmHg 44%
    21:00 -4°C° 0 mm 6 mps 765 mmHg 44%
    22:00 -5°C° 0 mm 6 mps 765 mmHg 44%
    23:00 -5°C° 0 mm 5 mps 766 mmHg 43%

    Tomorrow, 25 February, Sunday

    Time Temperature Precipitation Wind Pressure Humidity
    00:00 -5°C° 0 mm 5 mps 766 mmHg 42%
    01:00 -6°C° 0 mm 5 mps 766 mmHg 42%
    02:00 -6°C° 0 mm 5 mps 766 mmHg 42%
    03:00 -6°C° 0 mm 5 mps 766 mmHg 42%
    04:00 -6°C° 0 mm 5 mps 766 mmHg 40%
    05:00 -7°C° 0 mm 5 mps 766 mmHg 39%
    06:00 -8°C° 0 mm 6 mps 767 mmHg 38%
    07:00 -6°C° 0 mm 6 mps 767 mmHg 35%
    08:00 -6°C° 0 mm 6 mps 767 mmHg 33%
    09:00 -5°C° 0 mm 6 mps 767 mmHg 31%
    10:00 -5°C° 0 mm 6 mps 767 mmHg 29%
    11:00 -4°C° 0 mm 6 mps 767 mmHg 27%
    12:00 -3°C° 0 mm 6 mps 767 mmHg 25%
    13:00 -3°C° 0 mm 7 mps 767 mmHg 27%
    14:00 -3°C° 0 mm 7 mps 766 mmHg 28%
    15:00 -3°C° 0 mm 7 mps 766 mmHg 29%
    16:00 -4°C° 0 mm 6 mps 766 mmHg 34%
    17:00 -5°C° 0 mm 5 mps 767 mmHg 38%
    18:00 -5°C° 0 mm 5 mps 767 mmHg 42%
    19:00 -6°C° 0 mm 5 mps 767 mmHg 46%
    20:00 -6°C° 0 mm 5 mps 767 mmHg 49%
    21:00 -6°C° 0 mm 5 mps 767 mmHg 52%
    22:00 -6°C° 0 mm 5 mps 767 mmHg 54%
    23:00 -5°C° 0 mm 4 mps 767 mmHg 55%

    Day after tomorrow, 26 February, Monday

    Time Temperature Precipitation Wind Pressure Humidity
    00:00 -5°C° 0 mm 4 mps 768 mmHg 56%
    01:00 -6°C° 0 mm 5 mps 767 mmHg 55%
    02:00 -7°C° 0 mm 5 mps 767 mmHg 53%
    03:00 -7°C° 0 mm 5 mps 767 mmHg 52%
    04:00 -7°C° 0 mm 5 mps 767 mmHg 54%
    05:00 -7°C° 0 mm 5 mps 767 mmHg 55%
    06:00 -7°C° 0 mm 5 mps 767 mmHg 56%
    07:00 -8°C° 0 mm 6 mps 767 mmHg 52%
    08:00 -6°C° 0 mm 6 mps 767 mmHg 48%
    09:00 -7°C° 0 mm 7 mps 767 mmHg 45%
    10:00 -6°C° 0 mm 7 mps 767 mmHg 42%
    11:00 -6°C° 0 mm 7 mps 767 mmHg 39%
    12:00 -4°C° 0 mm 7 mps 766 mmHg 36%
    13:00 -4°C° 0 mm 7 mps 766 mmHg 36%
    14:00 -4°C° 0 mm 7 mps 766 mmHg 36%
    15:00 -4°C° 0 mm 7 mps 765 mmHg 36%
    16:00 -5°C° 0 mm 6 mps 765 mmHg 40%
    17:00 -5°C° 0 mm 5 mps 765 mmHg 43%
    18:00 -6°C° 0 mm 5 mps 765 mmHg 47%
    19:00 -5°C° 0 mm 4 mps 765 mmHg 49%
    20:00 -5°C° 0 mm 4 mps 765 mmHg 51%
    21:00 -5°C° 0 mm 4 mps 765 mmHg 52%
    22:00 -7°C° 0 mm 4 mps 764 mmHg 53%
    23:00 -7°C° 0 mm 4 mps 764 mmHg 54%

    27 February, Tuesday

    Time Temperature Precipitation Wind Pressure Humidity
    00:00 -7°C° 0 mm 4 mps 764 mmHg 55%
    01:00 -7°C° 0 mm 4 mps 763 mmHg 57%
    02:00 -6°C° 0 mm 3 mps 763 mmHg 59%
    03:00 -7°C° 0 mm 3 mps 763 mmHg 62%
    04:00 -7°C° 0 mm 3 mps 762 mmHg 64%
    05:00 -7°C° 0 mm 3 mps 762 mmHg 66%
    06:00 -7°C° 0 mm 3 mps 762 mmHg 69%
    07:00 -7°C° 0 mm 3 mps 762 mmHg 65%
    08:00 -7°C° 0 mm 4 mps 762 mmHg 62%
    09:00 -5°C° 0 mm 4 mps 762 mmHg 58%
    10:00 -5°C° 0 mm 4 mps 761 mmHg 53%
    11:00 -4°C° 0 mm 4 mps 761 mmHg 48%
    12:00 -4°C° 0 mm 5 mps 760 mmHg 42%
    13:00 -4°C° 0 mm 5 mps 760 mmHg 40%
    14:00 -3°C° 0 mm 4 mps 759 mmHg 37%
    15:00 -3°C° 0 mm 4 mps 759 mmHg 34%
    16:00 -4°C° 0 mm 4 mps 759 mmHg 36%
    17:00 -4°C° 0 mm 3 mps 759 mmHg 37%
    18:00 -5°C° 0 mm 3 mps 759 mmHg 39%
    19:00 -5°C° 0 mm 3 mps 759 mmHg 39%
    20:00 -6°C° 0 mm 3 mps 759 mmHg 39%
    21:00 -6°C° 0 mm 3 mps 759 mmHg 39%
    22:00 -6°C° 0 mm 3 mps 759 mmHg 38%
    23:00 -5°C° 0 mm 2 mps 759 mmHg 37%

    28 February, Wednesday

    Time Temperature Precipitation Wind Pressure Humidity
    00:00 -6°C° 0 mm 2 mps 759 mmHg 36%
    01:00 -6°C° 0 mm 2 mps 759 mmHg 36%
    02:00 -6°C° 0 mm 2 mps 759 mmHg 35%
    03:00 -7°C° 0 mm 2 mps 758 mmHg 34%
    04:00 -7°C° 0 mm 2 mps 759 mmHg 35%
    05:00 -8°C° 0 mm 3 mps 759 mmHg 36%
    06:00 -8°C° 0 mm 3 mps 759 mmHg 36%
    07:00 -8°C° 0 mm 3 mps 759 mmHg 35%
    08:00 -9°C° 0 mm 4 mps 759 mmHg 33%
    09:00 -8°C° 0 mm 5 mps 759 mmHg 32%
    10:00 -7°C° 0 mm 5 mps 759 mmHg 30%
    11:00 -7°C° 0 mm 5 mps 758 mmHg 29%
    12:00 -6°C° 0 mm 5 mps 758 mmHg 27%
    13:00 -6°C° 0 mm 5 mps 758 mmHg 27%
    14:00 -6°C° 0 mm 5 mps 757 mmHg 27%
    15:00 -5°C° 0 mm 5 mps 757 mmHg 27%
    16:00 -6°C° 0 mm 5 mps 757 mmHg 29%
    17:00 -6°C° 0 mm 5 mps 757 mmHg 31%
    18:00 -7°C° 0 mm 5 mps 757 mmHg 33%
    19:00 -7°C° 0 mm 5 mps 757 mmHg 34%
    20:00 -7°C° 0 mm 5 mps 757 mmHg 35%
    21:00 -8°C° 0 mm 5 mps 757 mmHg 36%
    22:00 -8°C° 0 mm 5 mps 756 mmHg 37%
    23:00 -8°C° 0 mm 5 mps 755 mmHg 38%

    1 March, Thursday

    Time Temperature Precipitation Wind Pressure Humidity
    00:00 -8°C° 0 mm 5 mps 755 mmHg 40%
    01:00 -10°C° 0 mm 6 mps 754 mmHg 41%
    02:00 -10°C° 0 mm 6 mps 753 mmHg 42%
    03:00 -10°C° 0 mm 6 mps 752 mmHg 43%
    04:00 -10°C° 0 mm 6 mps 752 mmHg 43%
    05:00 -10°C° 0 mm 6 mps 751 mmHg 43%
    06:00 -10°C° 0 mm 6 mps 751 mmHg 44%
    07:00 -11°C° 0 mm 7 mps 750 mmHg 43%
    08:00 -9°C° 0 mm 7 mps 749 mmHg 42%
    09:00 -8°C° 0 mm 7 mps 748 mmHg 42%
    10:00 -7°C° 0 mm 7 mps 748 mmHg 41%
    11:00 -6°C° 0 mm 7 mps 747 mmHg 41%
    12:00 -5°C° 0 mm 8 mps 746 mmHg 40%
    13:00 -5°C° 0.1 mm 8 mps 745 mmHg 44%
    14:00 -5°C° 0.1 mm 8 mps 745 mmHg 48%
    15:00 -5°C° 0.1 mm 8 mps 744 mmHg 53%
    16:00 -5°C° 0.1 mm 8 mps 743 mmHg 54%
    17:00 -5°C° 0.1 mm 8 mps 743 mmHg 55%
    18:00 -5°C° 0.1 mm 8 mps 742 mmHg 56%
    19:00 -5°C° 0.3 mm 8 mps 741 mmHg 62%
    20:00 -5°C° 0.3 mm 8 mps 741 mmHg 68%
    21:00 -5°C° 0.3 mm 8 mps 740 mmHg 74%
    22:00 -4°C° 0.6 mm 7 mps 739 mmHg 75%
    23:00 -3°C° 0.6 mm 7 mps 739 mmHg 77%
    Show more